Weather History for Pituffik, Greenland

Change the Weather History Date:

Saturday, September 14, 2013

  Actual Average Record
Temperature  
Mean Temperature 30 °F -  
Max Temperature 35 °F 27 °F 42 °F (1998)
Min Temperature 26 °F 18 °F 6 °F (1996)
Degree Days  
Heating Degree Days 34    
Moisture  
Dew Point 23 °F    
Average Humidity 71    
Maximum Humidity 86    
Minimum Humidity 62    
Precipitation  
Precipitation 0.00 in 0.02 in - ()
Sea Level Pressure  
Sea Level Pressure 29.82 in    
Wind  
Wind Speed 6 mph ()    
Max Wind Speed 20 mph    
Max Gust Speed -    
Visibility 6.2 miles    
Events      
Averages and records for this station are not official NWS values.
T = Trace of Precipitation, MM = Missing Value Source: Averaged Metar Reports

Daily Weather History Graph

Daily Weather History Graph

Search for Another Location

Airport:

Trip Planner

Search our weather history database for the weather conditions in past years. The results will help you decide how hot, cold, wet, or windy it might be!

Date:

Astronomy

Sep. 14, 2013 Rise Set
Actual Time 6:20 AM ADT 8:36 PM ADT
Civil Twilight 4:35 AM ADT 10:18 PM ADT
Nautical Twilight Sun does not rise Sun does not rise
Astronomical Twilight Sun does not rise Sun does not rise
Moon No Moon Rise No Moon Set
Length of Visible Light 17h 42m
Length of Day
14h 16m
Waxing Gibbous, 71% of the Moon is Illuminated
Sep 14
Waxing Gibbous
Sep 19
Full
Sep 27
Last Quarter
Oct 4
New
Oct 11
First Quarter

Hourly Weather History & Observations

Time (ADT) Temp. Windchill Dew Point Humidity Pressure Visibility Wind Dir Wind Speed Gust Speed Precip Events Conditions
12:57 AM 32.0 °F 23.6 °F 21.2 °F 64% 29.80 in 6.2 mi East 10.4 mph - N/A   Mostly Cloudy
12:58 AM 30.4 °F 21.5 °F 20.5 °F 67% 29.76 in 6.2 mi East 10.4 mph - N/A   Mostly Cloudy
1:01 AM 32.0 °F 24.2 °F 21.2 °F 64% 29.80 in 6.2 mi East 9.2 mph - N/A   Mostly Cloudy
1:24 AM 28.4 °F 21.2 °F 24.8 °F 86% 29.80 in 6.2 mi SE 6.9 mph - N/A   Overcast
1:37 AM 30.2 °F 25.4 °F 24.8 °F 80% 29.80 in 6.2 mi East 4.6 mph - N/A   Mostly Cloudy
1:58 AM 29.8 °F 22.2 °F 24.8 °F 81% 29.76 in 6.2 mi SE 8.1 mph - N/A   Mostly Cloudy
2:58 AM 31.1 °F 23.1 °F 24.8 °F 77% 29.77 in 6.2 mi ENE 9.2 mph - N/A   Overcast
3:58 AM 29.8 °F - 25.3 °F 83% 29.78 in 6.2 mi Calm Calm - N/A   Overcast
4:58 AM 31.1 °F 24.5 °F 24.3 °F 76% 29.78 in 6.2 mi East 6.9 mph - N/A   Overcast
5:58 AM 32.0 °F 27.5 °F 24.3 °F 73% 29.79 in 6.2 mi ENE 4.6 mph - N/A   Overcast
6:58 AM 30.0 °F 22.4 °F 23.7 °F 77% 29.80 in 6.2 mi ESE 8.1 mph - N/A   Scattered Clouds
7:58 AM 30.6 °F 22.4 °F 22.8 °F 73% 29.80 in 6.2 mi East 9.2 mph - N/A   Mostly Cloudy
8:58 AM 30.9 °F 23.5 °F 21.0 °F 67% 29.81 in 6.2 mi East 8.1 mph - N/A   Mostly Cloudy
9:58 AM 32.2 °F 28.9 °F 21.0 °F 63% 29.81 in 6.2 mi ESE 3.5 mph - N/A   Clear
10:58 AM 33.8 °F - 22.5 °F 63% 29.81 in 6.2 mi Calm Calm - N/A   Clear
11:58 AM 33.8 °F 29.6 °F 23.7 °F 67% 29.80 in 6.2 mi West 4.6 mph - N/A   Clear
12:58 PM 33.1 °F - 26.6 °F 77% 29.81 in 6.2 mi West 2.3 mph - N/A   Clear
1:58 PM 34.0 °F 29.8 °F 24.6 °F 69% 29.81 in 6.2 mi West 4.6 mph - N/A   Clear
2:58 PM 34.7 °F 29.6 °F 23.9 °F 65% 29.81 in 6.2 mi West 5.8 mph - N/A   Clear
3:58 PM 33.8 °F - 25.9 °F 73% 29.82 in 6.2 mi West 2.3 mph - N/A   Clear
4:58 PM 33.6 °F - 23.0 °F 65% 29.83 in 6.2 mi Calm Calm - N/A   Clear
5:58 PM 34.0 °F - 24.4 °F 68% 29.84 in 6.2 mi Calm Calm - N/A   Clear
6:58 PM 32.5 °F - 22.8 °F 67% 29.86 in 6.2 mi Calm Calm - N/A   Clear
7:58 PM 28.8 °F 20.9 °F 19.8 °F 69% 29.87 in 6.2 mi SE 8.1 mph - N/A   Clear
8:58 PM 27.7 °F 18.8 °F 19.4 °F 71% 29.89 in 6.2 mi East 9.2 mph - N/A   Clear
9:58 PM 27.7 °F - 16.0 °F 62% 29.90 in 6.2 mi Variable 2.3 mph - N/A   Clear
10:58 PM 27.1 °F 14.1 °F 17.6 °F 67% 29.91 in 6.2 mi SSE 18.4 mph - N/A   Clear
11:58 PM 26.1 °F 12.3 °F 18.7 °F 74% 29.93 in 6.2 mi South 19.6 mph - N/A   Clear